Weather in Nefedyevo

Russia / Yaroslavl Oblast     57°25′21″N   38°37′00″E
temp.,
°C
wind,
m/s
gust,
m/s
humid.,
%
clouds,
%
prec.,
mm/h
press.,
hPa
HPBL,
m
6 may, thu
thu600:00+6ssw269855 0.3 1007221
03:00+4s249826 0.3 100773
06:00+6se399879 0.0 1005272
09:00+12sse51285100 0.0 1003564
12:00+16s7136498 0.0 10021489
15:00+16s8166451 0.7 10011929
18:00+13ssw81468100 0.5 10001780
21:00+7wsw51188100 1.3 1004826
7 may, fri
fri700:00+6sw5129295 0.0 1005736
03:00+5sw4119332 0.1 1007638
06:00+5ssw411895 0.0 1008597
09:00+8sw6106514 0.0 10091118
12:00+12sw6104498 0.1 10102529
15:00+14sw6104290 0.1 10102667
18:00+11ssw5106913 0.3 10111331
21:00+8ssw41178100 0.3 1012570
8 may, sat
sat800:00+7sse3118582 0.0 1011341
03:00+7sse41480100 0.0 1010454
06:00+8sse61475100 0.4 1009918
09:00+9sse61572100 0.7 10071128
12:00+11sse51284100 0.7 10051340
15:00+9sse71692100 5.9 10021275
18:00+9sse51197100 0.8 1001742
21:00+8sw51189100 2.9 1001949
9 may, sun
sun900:00+4sw51188100 0.4 10021057
03:00+5ssw61284100 0.4 10021193
06:00+4ssw61189100 0.1 10031205
09:00+3wsw51196100 0.4 1006947
12:00+7w6117886 0.3 10111394
15:00+11nw6114636 0.3 10142085
18:00+10wnw585538 0.0 10171744
21:00+4wnw22835 0.1 102040
10 may, mon
mon1000:00+2nnw11800 0.0 102310
03:00+1wnw00750 0.0 102510
06:00+4ssw11685 0.0 102730
09:00+10ssw12475 0.0 1027645
12:00+14sw223884 0.0 10271511
15:00+15w2238100 0.0 10271681
18:00+14wsw12495 0.0 10271483
21:00+8se22692 0.0 102912